Flag for United Kingdom Weather past 2 weeks in Edinburgh, Scotland, United Kingdom

Now
45 °F

Passing clouds.


Feels Like: 39 °F
Forecast: 37 / 46 °F
Wind: 12 mph from West

Location: Edinburgh Airport

Current Time: Mar 4, 2015 at 11:52:22 AM

Latest Report: Mar 4, 2015 at 11:20 AM


Visibility: N/A

Pressure: 30.27 "Hg

Humidity: 66%

Dew point: 34 °F

Location of EdinburghLocation

Historic Weather in Edinburgh — Graph

°F

Edinburgh temperature yesterday

Maximum temperature yesterday: 41 °F (at 1:50 PM)
Minimum temperature yesterday: 34 °F (at 12:20 AM)
Average temperature yesterday: 36 °F

Past Weeks' High & Low Weather Summary

 TemperatureHumidityPressure
High54 °F (Feb 18, 12:20 PM)100% (Feb 21, 10:50 PM)30.42 "Hg (Feb 21, 10:50 PM)
Low27 °F (Feb 22, 2:20 AM)53% (Feb 26, 12:50 PM)28.65 "Hg (Feb 23, 4:20 PM)
Average40 °F83%29.54 "Hg
* Reported Feb 17 10:20 AM — Mar 4 10:50 AM, Edinburgh, Weather by CustomWeather, © 2015

Note: Actual official high and low records may vary slightly from our data, if they occured in-between our weather recording intervals... More about our weather records

Advertising

Edinburgh weather history for previous 24 hours

 ConditionsComfort  
Time TempWeatherWind HumidityBarometerVisibility
10:50 AM
Wed, Mar 4
45 °FPassing clouds.13 mph71%30.24 "HgN/A
10:20 AM45 °FPassing clouds.13 mph66%30.24 "HgN/A
9:50 AM43 °FSunny.12 mph76%30.21 "Hg10 mi
9:20 AM41 °FSunny.12 mph76%30.18 "Hg10 mi
8:50 AM39 °FSunny.10 mph81%30.15 "Hg10 mi
8:20 AM37 °FSunny.10 mph81%30.15 "Hg10 mi
7:50 AM39 °FSunny.10 mph75%30.12 "Hg10 mi
7:20 AM37 °FSunny.10 mph81%30.09 "Hg10 mi
6:50 AM37 °FClear.8 mph75%30.07 "Hg10 mi
6:20 AM36 °FClear.12 mph87%30.04 "Hg10 mi
5:50 AM36 °FClear.12 mph87%30.04 "Hg10 mi
5:20 AM36 °FClear.13 mph87%30.01 "Hg10 mi
4:50 AM36 °FClear.13 mph87%29.98 "Hg10 mi
4:20 AM36 °FClear.13 mph87%29.95 "Hg10 mi
3:50 AM36 °FClear.16 mph87%29.95 "Hg10 mi
3:20 AM37 °FClear.16 mph81%29.92 "Hg10 mi
2:50 AM37 °FClear.14 mph81%29.89 "Hg10 mi
2:20 AM37 °FClear.15 mph81%29.89 "Hg10 mi
1:50 AM37 °FClear.16 mph81%29.86 "Hg10 mi
1:20 AM36 °FPassing clouds.16 mph87%29.86 "HgN/A
12:50 AM37 °FClear.15 mph81%29.83 "Hg10 mi
12:20 AM37 °FClear.13 mph81%29.83 "Hg10 mi
11:50 PM
Tue, Mar 3
37 °FPassing clouds.13 mph81%29.83 "HgN/A
11:20 PM39 °FLight rain. Passing clouds.22 mph75%29.80 "HgN/A
10:50 PM37 °FClear.15 mph81%29.77 "Hg10 mi
10:20 PM37 °FPassing clouds.18 mph81%29.77 "HgN/A
9:50 PM37 °FPassing clouds.15 mph87%29.74 "HgN/A
9:20 PM37 °FPassing clouds.17 mph87%29.71 "HgN/A
8:50 PM36 °FPassing clouds.15 mph93%29.71 "HgN/A
8:20 PM37 °FPassing clouds.16 mph87%29.71 "HgN/A
7:50 PM37 °FPassing clouds.17 mph87%29.68 "HgN/A
7:20 PM37 °FPassing clouds.16 mph87%29.68 "Hg6 mi
6:50 PM36 °FRain. Passing clouds.24 mph93%29.65 "Hg4 mi
6:20 PM37 °FRain. Passing clouds.21 mph87%29.68 "Hg4 mi
5:50 PM37 °FLight rain. Broken clouds.18 mph87%29.65 "Hg4 mi
5:20 PM37 °FSprinkles. Partly sunny.22 mph87%29.65 "Hg5 mi
4:50 PM37 °FSprinkles. Broken clouds.20 mph87%29.65 "Hg4 mi
4:20 PM39 °FScattered clouds.25 mph70%29.62 "HgN/A
3:50 PM41 °FScattered clouds.29 mph70%29.62 "HgN/A
3:20 PM41 °FScattered clouds.23 mph70%29.65 "HgN/A
2:50 PM41 °FScattered clouds.25 mph70%29.65 "HgN/A
2:20 PM41 °FScattered clouds.28 mph70%29.65 "HgN/A
1:50 PM41 °FPassing clouds.24 mph70%29.65 "HgN/A
1:20 PM39 °FScattered clouds.22 mph81%29.68 "HgN/A
12:50 PM37 °FPartly sunny.21 mph87%29.65 "HgN/A
12:20 PM39 °FPartly sunny.23 mph75%29.65 "HgN/A
11:50 AM39 °FPassing clouds.24 mph75%29.65 "HgN/A
11:20 AM37 °FPassing clouds.22 mph81%29.65 "HgN/A
Weather by CustomWeather, © 2015

See weather overviewHow to use our weather pages